Weather History for Cincinnati, OH

Change the Weather History Date:

Tuesday, August 13, 2013

  Actual Average Record
Temperature  
Mean Temperature 72 °F -  
Max Temperature 80 °F 83 °F 99 °F (2005)
Min Temperature 63 °F 63 °F 49 °F (1964)
Cooling Degree Days 7    
Growing Degree Days 22 (Base 50)    
Moisture  
Dew Point 63 °F    
Average Humidity 72    
Maximum Humidity 94    
Minimum Humidity 50    
Precipitation  
Precipitation 0.00 in - - ()
Sea Level Pressure  
Sea Level Pressure 29.92 in    
Wind  
Wind Speed 7 mph (NW)    
Max Wind Speed 15 mph    
Max Gust Speed 21 mph    
Visibility 9 miles    
Events      
Averages and records for this station are not official NWS values.
T = Trace of Precipitation, MM = Missing Value Source: NWS Daily Summary

Daily Weather History Graph

Daily Weather History Graph

Search for Another Location

Airport:

Trip Planner

Search our weather history database for the weather conditions in past years. The results will help you decide how hot, cold, wet, or windy it might be!

Date:

Astronomy

Aug. 13, 2013 Rise Set
Actual Time 6:49 AM EDT 8:35 PM EDT
Civil Twilight 6:20 AM EDT 9:03 PM EDT
Nautical Twilight 5:45 AM EDT 9:38 PM EDT
Astronomical Twilight 5:08 AM EDT 10:15 PM EDT
Moon 1:39 PM EDT (8/13) No Moon Set
Length of Visible Light 14h 43m
Length of Day
13h 45m
Waxing Crescent, 41% of the Moon is Illuminated
Aug 13
Waxing Crescent
Aug 14
First Quarter
Aug 20
Full
Aug 28
Last Quarter
Sep 5
New

Hourly Weather History & Observations

Time (EDT) Temp. Heat Index Dew Point Humidity Pressure Visibility Wind Dir Wind Speed Gust Speed Precip Events Conditions
12:53 AM 75.0 °F - 73.0 °F 94% 29.89 in 8.0 mi WSW 6.9 mph - N/A   Overcast
1:53 AM 75.0 °F - 72.0 °F 90% 29.88 in 6.0 mi WSW 8.1 mph - N/A   Overcast
2:53 AM 73.9 °F - 72.0 °F 93% 29.86 in 6.0 mi Calm Calm - N/A   Mostly Cloudy
3:02 AM 75.2 °F - 71.6 °F 89% 29.87 in 6.0 mi SW 4.6 mph - N/A   Overcast
3:11 AM 73.4 °F - 71.6 °F 94% 29.87 in 6.0 mi WSW 4.6 mph - N/A   Overcast
3:19 AM 75.2 °F - 71.6 °F 89% 29.87 in 6.0 mi WSW 4.6 mph - N/A   Overcast
3:32 AM 75.2 °F - 71.6 °F 89% 29.87 in 7.0 mi WNW 6.9 mph - N/A   Mostly Cloudy
3:53 AM 75.0 °F - 71.1 °F 87% 29.86 in 7.0 mi West 5.8 mph - N/A   Overcast
4:53 AM 75.0 °F - 69.1 °F 82% 29.86 in 10.0 mi WNW 3.5 mph - N/A   Overcast
5:53 AM 73.0 °F - 66.9 °F 81% 29.86 in 10.0 mi West 4.6 mph - N/A   Scattered Clouds
6:53 AM 72.0 °F - 66.9 °F 84% 29.88 in 10.0 mi Calm Calm - N/A   Partly Cloudy
7:51 AM 71.6 °F - 66.2 °F 83% 29.91 in 10.0 mi NNW 6.9 mph - N/A   Mostly Cloudy
7:53 AM 71.1 °F - 66.0 °F 84% 29.90 in 10.0 mi NNW 4.6 mph - N/A   Mostly Cloudy
8:53 AM 71.1 °F - 66.0 °F 84% 29.91 in 10.0 mi North 8.1 mph - N/A   Overcast
9:53 AM 72.0 °F - 64.9 °F 78% 29.92 in 8.0 mi NNE 6.9 mph - N/A   Overcast
10:53 AM 73.0 °F - 64.9 °F 76% 29.94 in 7.0 mi North 8.1 mph - N/A   Overcast
11:53 AM 75.0 °F - 63.0 °F 66% 29.94 in 10.0 mi Variable 4.6 mph - N/A   Scattered Clouds
12:53 PM 75.9 °F - 63.0 °F 64% 29.95 in 10.0 mi North 6.9 mph - N/A   Mostly Cloudy
1:53 PM 79.0 °F - 60.1 °F 52% 29.94 in 10.0 mi NNW 11.5 mph - N/A   Scattered Clouds
2:53 PM 80.1 °F 80.9 °F 60.1 °F 50% 29.94 in 10.0 mi NNE 11.5 mph - N/A   Scattered Clouds
3:53 PM 78.1 °F - 57.9 °F 50% 29.94 in 10.0 mi North 13.8 mph - N/A   Partly Cloudy
4:53 PM 75.9 °F - 57.9 °F 54% 29.94 in 10.0 mi NNW 12.7 mph 17.3 mph N/A   Clear
5:53 PM 75.9 °F - 57.0 °F 52% 29.95 in 10.0 mi NNW 5.8 mph 16.1 mph N/A   Partly Cloudy
6:53 PM 75.0 °F - 57.0 °F 53% 29.95 in 10.0 mi NNW 10.4 mph - N/A   Partly Cloudy
7:53 PM 72.0 °F - 55.9 °F 57% 29.96 in 10.0 mi North 15.0 mph 20.7 mph N/A   Partly Cloudy
8:53 PM 69.1 °F - 51.1 °F 53% 29.99 in 10.0 mi North 10.4 mph 18.4 mph N/A   Clear
9:53 PM 68.0 °F - 50.0 °F 52% 30.02 in 10.0 mi North 12.7 mph - N/A   Mostly Cloudy
10:53 PM 64.9 °F - 48.9 °F 56% 30.05 in 10.0 mi North 8.1 mph - N/A   Clear
11:53 PM 63.0 °F - 48.0 °F 58% 30.07 in 10.0 mi North 5.8 mph - N/A   Clear